Location: Songkhla
(7.2000°N, 100.6000°E)
Time: 06:03:27
(UTC+07:00)

XW-2D - Pass Details

Date: 02 August 2021
Orbit: 505 x 522 km, 97.5° (Epoch: 17 September)

Event Time Altitude Azimuth Distance (km) Brightness Sun altitude
Rises 05:39:03 0° 20° (NNE) 2,631 ? -8.4°
Reaches altitude 10° 05:41:12 10° 26° (NNE) 1,747 ? -7.9°
Maximum altitude 05:44:50 48° 101° (E) 690 ? -7.0°
Drops below altitude 10° 05:48:30 10° 176° (S) 1,755 ? -6.2°
Sets 05:50:39 0° 181° (S) 2,645 ? -5.7°
